DMSP 5D-3 F17 (USA 191)

Satellite information

Favourite Embed

Satellite Type and Status

PAYLOADIN ORBIT

Key statistics

Satellite DMSP 5D-3 F17 (USA 191) at a glance.

Uptime

6979

Days in orbit

Revolutions

≈ 14.1

Per day

Orbit

SSO

Sun Synchronous Orbit

Inclination

98.7

Latest

Satellite identification and parameters

Extended collection of information and parameters for DMSP 5D-3 F17 (USA 191).

Object identification

Identified? True

Debris? False

Object name: DMSP 5D-3 F17 (USA 191)

International designator: 2006-050A

Object number (NORAD): 29522

Object ID (CCSDS): 29522

Country: UNITED STATES OF AMERICA (US)

Current information (Y/N): Y

RCS size: LARGE

Orbital parameters

Period: 101.773 minutes

Inclination: 98.7394 deg

SMA: 7220.724 km

Apoapsis: 849.369 km

Periapsis: 835.809 km

RAAN: 351.6744 deg

Eccentricy: 0.00093898

Argument of periapsis: 226.2831 deg

Mean anomaly: 133.7566 deg

Mean motion: 14.14919236 rev/day

Mean motion (dot): 0.00000283 rev/day2

B* drag term: 0.00016900826 1/REarth

Two-line elements (TLE)

Creation date: Dec. 12, 2025, 10:14 a.m.

Reference frame: TEME

Reference center: EARTH

Epoch: Dec. 12, 2025, 6:36 a.m. UTC

TLE line 0: 0 DMSP 5D-3 F17 (USA 191)

TLE line 1: 1 29522U 06050A 25346.27561718 .00000283 00000-0 16901-3 0 9991

TLE line 2: 2 29522 98.7394 351.6744 0009390 226.2831 133.7566 14.14919236985987

Live tracking on map

Real-time ground track for satellite DMSP 5D-3 F17 (USA 191).

In-orbit conjunctions

There are no conjunctions computed for DMSP 5D-3 F17 (USA 191), at the moment. Check back to stay up to date, as we update our databases every day.

Go to all conjunctions

Associated space launch

11th gen military meteorological satellite

DMSP 5D-3 F17 (USA 191) was lifted into orbit during the mission ‘Delta IV M | DMSP F-17’, on board a Delta IV M space rocket.

The launch took place on Nov. 4, 2006, 1:53 p.m. from Space Launch Complex 6.

For more information about the launch, click the button.

Launch to space Delta IV M | DMSP F-17
Delta IV M | DMSP F-17

Agency: N/A

Status: Launch Successful

Launch date: Nov. 4, 2006, 1:53 p.m. UTC

Rocket: Delta IV M

Launch pad: Space Launch Complex 6

Location: Vandenberg SFB, CA, USA

...

Latest news about this satellite

There are no fresh news available about this satellite. Check back as we update our databases every day.


Newsletter sign-up

Weekly statistics, charts and insights to help you stay on top of the space industry.